Weather in Kular

Russia / Sakha (Yakutia) Republic     70°38′17″N   134°20′51″E
temp.,
°C
wind,
m/s
gust,
m/s
humid.,
%
clouds,
%
prec.,
mm/h
press.,
hPa
HPBL,
m
6 may, thu
thu601:00−3e6109697 0.0 1017277
04:00−7e61197100 0.0 1016215
07:00−7e5109795 0.0 1016223
10:00−5e6109777 0.0 1016264
13:00−4e689682 0.0 1016335
16:00−3e6892100 0.1 1016440
19:00−3ene5797100 0.0 1017347
22:00−3ene5897100 0.1 1017264
7 may, fri
fri701:00−3ene4897100 0.1 1017253
04:00−3ene4897100 0.2 1017276
07:00−3ene4796100 0.1 1017323
10:00−2e5693100 0.2 1018415
13:00−1e569299 0.1 1018546
16:00−1e5693100 0.3 1018581
19:00−1ene469799 0.2 1018359
22:00−3ene469799 0.4 1019172
8 may, sat
sat801:00−5ne2597100 0.2 101990
04:00−6ne2397100 0.4 101959
07:00−5ne2496100 0.3 1019175
10:00−3ne3495100 0.9 1019283
13:00−3ne4492100 0.3 1019390
16:00−2nne349296 0.6 1020465
19:00−2nne3492100 0.1 1020397
22:00−3nne2294100 0.1 102147
9 may, sun
sun901:00−4nne1198100 0.1 102125
04:00−6ne229887 0.3 102126
07:00−6ene249785 0.1 1021107
10:00−5ene249459 0.1 1022212
13:00−3ene459191 0.0 1022433
16:00−2ene458898 0.1 1023539
19:00−3ene459477 0.0 1024391
22:00−6ene349777 0.0 102597
10 may, mon
mon1001:00−12ene2210096 0.0 102613
04:00−9ene24100100 0.0 102698
07:00−6ene369588 0.1 1027244
10:00−6ene369452 0.1 1027230
13:00−3ne568693 0.1 1027752
16:00−1ne468897 0.2 1027678
19:00−2ne5896100 0.3 1028493
22:00−6ne489771 0.4 1029142